Tracking 29892 objects as of 21-Nov-2024
HD Live streaming from Space Station
objects crossing your sky now

STARLINK-5827

Track STARLINK-5827 now!
10-day predictions
STARLINK-5827 is classified as:


NORAD ID: 57066
Int'l Code: 2023-088U
Perigee: 566.0 km
Apogee: 566.7 km
Inclination: 43.0 °
Period: 95.8 minutes
Semi major axis: 6937 km
RCS: Unknown
Launch date: June 22, 2023
Source: United States (US)
Launch site: AIR FORCE WESTERN TEST RANGE (AFWTR)
Your satellite tracking list
Your tracking list is empty




NASA's NSSDC Master Catalog

Two Line Element Set (TLE):
1 57066U 23088U   24325.97228196 -.00005589  00000-0 -39934-3 0  9995
2 57066  43.0009 161.2366 0000520 269.0185  91.0598 15.02505951 78218
Source of the keplerian elements: AFSPC